W3MSB Weather Reports


time (UTC)temp
C
wind
direction
speed
KPH
gust
KPH
rain 1hr
cm
rain 24hr
cm
rain mn
cm
humidity
%
barometer
mb
20260504191049 22 148 12.9 25.7 0.00 0.00 0.00 43 1008.5
20260504190950 22 169 12.9 25.7 0.00 0.00 0.00 42 1008.4
20260504190849 22 219 12.9 25.7 0.00 0.00 0.00 42 1008.5
20260504190749 22 172 12.9 25.7 0.00 0.00 0.00 42 1008.5
20260504190649 22 184 12.9 25.7 0.00 0.00 0.00 41 1008.5
20260504190549 22 178 12.9 25.7 0.00 0.00 0.00 41 1008.5
20260504190447 22 159 14.5 25.7 0.00 0.00 0.00 42 1008.5
20260504190347 22 161 12.9 25.7 0.00 0.00 0.00 41 1008.6
20260504190248 22 145 14.5 25.7 0.00 0.00 0.00 42 1008.6
20260504190147 22 196 14.5 25.7 0.00 0.00 0.00 42 1008.6
20260504190047 22 161 14.5 25.7 0.00 0.00 0.00 41 1008.6
20260504185947 22 175 14.5 27.4 0.00 0.00 0.00 42 1008.5
20260504185847 22 137 14.5 27.4 0.00 0.00 0.00 41 1008.6
20260504185748 22 144 14.5 27.4 0.00 0.00 0.00 41 1008.6
20260504185647 22 173 12.9 27.4 0.00 0.00 0.00 40 1008.6
20260504185545 22 145 12.9 32.2 0.00 0.00 0.00 41 1008.7
20260504185511 22 141 12.9 32.2 0.00 0.00 0.00 40 1008.7
20260504185502 22 145 12.9 32.2 0.00 0.00 0.00 41 1008.7
20260504185245 22 175 12.9 32.2 0.00 0.00 0.00 42 1008.8
20260504185146 22 201 12.9 32.2 0.00 0.00 0.00 41 1008.8
20260504185046 22 195 12.9 32.2 0.00 0.00 0.00 41 1008.9
20260504184946 22 234 12.9 32.2 0.00 0.00 0.00 42 1008.8
20260504184840 22 174 12.9 32.2 0.00 0.00 0.00 43 1008.8
20260504184739 22 202 12.9 32.2 0.00 0.00 0.00 42 1008.8
20260504184640 22 161 14.5 32.2 0.00 0.00 0.00 41 1008.8
20260504184604 22 183 14.5 32.2 0.00 0.00 0.00 41 1008.9
20260504184555 22 193 14.5 32.2 0.00 0.00 0.00 42 1008.9
20260504184339 22 172 14.5 32.2 0.00 0.00 0.00 41 1008.9
20260504184240 22 182 14.5 32.2 0.00 0.00 0.00 40 1009.0
20260504184200 22 194 16.1 32.2 0.00 0.00 0.00 42 1008.9
20260504184153 22 194 14.5 32.2 0.00 0.00 0.00 42 1008.9
20260504183937 22 167 16.1 32.2 0.00 0.00 0.00 40 1008.9
20260504183837 22 132 16.1 32.2 0.00 0.00 0.00 41 1009.0
20260504183737 22 166 16.1 32.2 0.00 0.00 0.00 40 1008.9
20260504183638 22 166 14.5 32.2 0.00 0.00 0.00 40 1009.0
20260504183535 22 161 14.5 29.0 0.00 0.00 0.00 40 1009.0
20260504183435 22 157 12.9 29.0 0.00 0.00 0.00 41 1009.0
20260504183355 22 158 11.3 29.0 0.00 0.00 0.00 39 1009.0
20260504183347 22 124 12.9 29.0 0.00 0.00 0.00 39 1009.0
20260504183331 22 155 12.9 29.0 0.00 0.00 0.00 39 1009.0
20260504183218 22 157 11.3 29.0 0.00 0.00 0.00 41 1009.0
20260504183207 22 175 12.9 29.0 0.00 0.00 0.00 40 1009.0
20260504182837 22 194 11.3 25.7 0.00 0.00 0.00 40 1009.0
20260504182729 22 162 11.3 25.7 0.00 0.00 0.00 41 1009.0
20260504182630 22 197 11.3 22.5 0.00 0.00 0.00 40 1009.1
20260504182523 22 171 11.3 25.7 0.00 0.00 0.00 42 1009.0
20260504182421 22 175 11.3 25.7 0.00 0.00 0.00 40 1009.1
20260504182322 22 214 11.3 25.7 0.00 0.00 0.00 40 1009.1
20260504182222 22 159 11.3 25.7 0.00 0.00 0.00 41 1009.1
20260504182121 22 155 11.3 25.7 0.00 0.00 0.00 41 1009.1
20260504182023 22 142 9.7 25.7 0.00 0.00 0.00 39 1009.2
20260504181921 22 171 9.7 25.7 0.00 0.00 0.00 39 1009.2
20260504181822 22 151 9.7 25.7 0.00 0.00 0.00 41 1009.2
20260504181720 22 155 9.7 25.7 0.00 0.00 0.00 42 1009.2
20260504181641 22 161 9.7 24.1 0.00 0.00 0.00 42 1009.2
20260504181634 22 169 9.7 24.1 0.00 0.00 0.00 41 1009.3
20260504181418 22 240 9.7 22.5 0.00 0.00 0.00 39 1009.2
20260504181342 22 198 9.7 22.5 0.00 0.00 0.00 40 1009.2
20260504181333 22 240 9.7 22.5 0.00 0.00 0.00 40 1009.2
20260504181118 22 215 8.0 22.5 0.00 0.00 0.00 41 1009.3
20260504181020 22 205 9.7 22.5 0.00 0.00 0.00 43 1009.3
20260504180920 22 221 9.7 22.5 0.00 0.00 0.00 44 1009.3
20260504180821 22 236 9.7 22.5 0.00 0.00 0.00 42 1009.3
20260504180720 22 232 9.7 22.5 0.00 0.00 0.00 40 1009.4
20260504180616 22 238 9.7 22.5 0.00 0.00 0.00 41 1009.3
20260504180515 22 177 9.7 20.9 0.00 0.00 0.00 42 1009.3
20260504180416 22 199 9.7 20.9 0.00 0.00 0.00 41 1009.4
20260504180403 22 236 9.7 24.1 0.00 0.00 0.00 40 1009.4
20260504180352 22 213 9.7 24.1 0.00 0.00 0.00 41 1009.4
20260504180232 22 194 9.7 24.1 0.00 0.00 0.00 40 1009.4
20260504180015 22 209 9.7 24.1 0.00 0.00 0.00 39 1009.5
20260504175914 22 185 11.3 24.1 0.00 0.00 0.00 39 1009.5
20260504175816 22 184 9.7 24.1 0.00 0.00 0.00 40 1009.5
20260504175715 22 192 11.3 24.1 0.00 0.00 0.00 39 1009.5
20260504175616 22 196 11.3 24.1 0.00 0.00 0.00 39 1009.5
20260504175510 22 155 11.3 24.1 0.00 0.00 0.00 40 1009.5
20260504175411 22 193 12.9 24.1 0.00 0.00 0.00 40 1009.6
20260504175312 22 148 12.9 24.1 0.00 0.00 0.00 43 1009.6
20260504175211 22 167 12.9 24.1 0.00 0.00 0.00 42 1009.6
20260504175111 22 240 12.9 24.1 0.00 0.00 0.00 41 1009.6
20260504175011 22 218 12.9 24.1 0.00 0.00 0.00 40 1009.7
20260504174952 22 227 12.9 24.1 0.00 0.00 0.00 40 1009.5
20260504174947 22 217 11.3 24.1 0.00 0.00 0.00 41 1009.6
20260504174937 22 224 12.9 24.1 0.00 0.00 0.00 41 1009.7
20260504174607 22 207 11.3 24.1 0.00 0.00 0.00 39 1009.6
20260504174508 22 173 9.7 24.1 0.00 0.00 0.00 40 1009.6
20260504174407 22 198 9.7 24.1 0.00 0.00 0.00 40 1009.6
20260504174307 22 200 8.0 25.7 0.00 0.00 0.00 41 1009.6
20260504174206 22 187 8.0 25.7 0.00 0.00 0.00 41 1009.6
20260504174107 22 167 8.0 25.7 0.00 0.00 0.00 42 1009.6
20260504174008 22 224 8.0 25.7 0.00 0.00 0.00 42 1009.6
20260504173948 22 188 9.7 25.7 0.00 0.00 0.00 44 1009.7
20260504173936 22 213 8.0 25.7 0.00 0.00 0.00 40 1009.6
20260504173817 22 252 9.7 25.7 0.00 0.00 0.00 40 1009.6
20260504173627 22 200 12.9 25.7 0.00 0.00 0.00 42 1009.7
20260504173619 22 253 11.3 25.7 0.00 0.00 0.00 44 1009.6
20260504173403 22 241 12.9 25.7 0.00 0.00 0.00 45 1009.7
20260504173303 22 155 12.9 25.7 0.00 0.00 0.00 42 1009.8
20260504173204 21 172 11.3 25.7 0.00 0.00 0.00 40 1009.7
20260504173100 21 182 11.3 25.7 0.00 0.00 0.00 41 1009.7
20260504173001 22 105 11.3 25.7 0.00 0.00 0.00 43 1009.7
20260504172901 22 173 9.7 25.7 0.00 0.00 0.00 40 1009.7
20260504172759 22 186 9.7 25.7 0.00 0.00 0.00 41 1009.8
20260504172659 22 163 9.7 25.7 0.00 0.00 0.00 42 1009.7
20260504172558 22 148 9.7 25.7 0.00 0.00 0.00 41 1009.7
20260504172542 21 185 9.7 24.1 0.00 0.00 0.00 47 1009.9
20260504172531 22 138 9.7 25.7 0.00 0.00 0.00 42 1009.8
20260504172412 21 171 9.7 24.1 0.00 0.00 0.00 41 1009.8
20260504172155 21 225 9.7 24.1 0.00 0.00 0.00 46 1009.8
20260504172055 21 325 11.3 24.1 0.00 0.00 0.00 49 1009.8
20260504171955 21 264 12.9 27.4 0.00 0.00 0.00 41 1009.8
20260504171855 21 280 12.9 27.4 0.00 0.00 0.00 41 1009.9
20260504171755 21 249 12.9 27.4 0.00 0.00 0.00 40 1009.9
20260504171655 21 236 12.9 27.4 0.00 0.00 0.00 40 1009.9
20260504171555 21 194 12.9 27.4 0.00 0.00 0.00 42 1010.0
20260504171452 21 194 12.9 27.4 0.00 0.00 0.00 41 1010.0
20260504171416 21 157 12.9 27.4 0.00 0.00 0.00 42 1009.9
20260504171408 21 213 12.9 27.4 0.00 0.00 0.00 42 1010.0
20260504171152 21 158 12.9 27.4 0.00 0.00 0.00 43 1009.9
20260504171051 21 156 12.9 27.4 0.00 0.00 0.00 41 1009.9
20260504170951 21 160 11.3 27.4 0.00 0.00 0.00 43 1009.9
20260504170851 21 128 12.9 27.4 0.00 0.00 0.00 42 1009.9
20260504170752 21 204 12.9 27.4 0.00 0.00 0.00 40 1010.0
20260504170648 21 190 12.9 27.4 0.00 0.00 0.00 39 1010.1
20260504170548 21 184 11.3 27.4 0.00 0.00 0.00 41 1010.1
20260504170448 21 223 11.3 27.4 0.00 0.00 0.00 42 1010.1
20260504170347 21 194 11.3 27.4 0.00 0.00 0.00 43 1010.2
20260504170247 21 173 9.7 27.4 0.00 0.00 0.00 44 1010.2
20260504170148 21 218 9.7 27.4 0.00 0.00 0.00 41 1010.2
20260504160419 20 165 11.3 24.1 0.00 0.00 0.00 46 1011.1
20260504160320 20 171 11.3 24.1 0.00 0.00 0.00 44 1011.1
20260504160215 20 227 12.9 24.1 0.00 0.00 0.00 45 1011.0
20260504160116 20 240 12.9 24.1 0.00 0.00 0.00 42 1011.1
20260504150751 18 199 9.7 20.9 0.00 0.00 0.00 42 1011.6
20260504150652 18 178 9.7 20.9 0.00 0.00 0.00 44 1011.6
20260504150548 18 197 9.7 20.9 0.00 0.00 0.00 45 1011.6
20260504150446 18 144 9.7 20.9 0.00 0.00 0.00 47 1011.6
20260504150346 18 165 9.7 20.9 0.00 0.00 0.00 45 1011.6
20260504150311 18 128 9.7 20.9 0.00 0.00 0.00 45 1011.6
20260504150302 18 164 9.7 20.9 0.00 0.00 0.00 44 1011.6
20260504141323 16 190 4.8 19.3 0.00 0.00 0.00 49 1012.0
20260504141223 16 207 3.2 14.5 0.00 0.00 0.00 50 1012.0
20260504141123 16 193 3.2 9.7 0.00 0.00 0.00 51 1012.1
20260504141024 16 156 3.2 8.0 0.00 0.00 0.00 50 1012.0
20260504140920 15 156 3.2 8.0 0.00 0.00 0.00 51 1012.1
20260504140818 15 155 3.2 8.0 0.00 0.00 0.00 54 1012.1
20260504140719 15 150 3.2 8.0 0.00 0.00 0.00 53 1012.1
20260504140619 15 150 3.2 8.0 0.00 0.00 0.00 52 1012.1
20260504140519 15 150 3.2 8.0 0.00 0.00 0.00 53 1012.1
20260504140419 15 150 3.2 8.0 0.00 0.00 0.00 52 1012.2
20260504140318 15 151 3.2 8.0 0.00 0.00 0.00 53 1012.1
20260504140259 15 152 3.2 8.0 0.00 0.00 0.00 53 1012.1
20260504140249 15 152 3.2 8.0 0.00 0.00 0.00 54 1012.1
20260504140129 15 152 3.2 8.0 0.00 0.00 0.00 54 1012.2
20260504130751 11 220 1.6 4.8 0.00 0.00 0.00 61 1012.6
20260504130651 11 212 1.6 8.0 0.00 0.00 0.00 61 1012.6
20260504130552 11 205 1.6 8.0 0.00 0.00 0.00 60 1012.6
20260504130510 11 205 1.6 8.0 0.00 0.00 0.00 62 1012.6
20260504130502 11 205 1.6 8.0 0.00 0.00 0.00 61 1012.7
20260504130247 11 205 1.6 8.0 0.00 0.00 0.00 61 1012.6
20260504130148 11 205 1.6 8.0 0.00 0.00 0.00 63 1012.6
20260504120137 7 207 0.0 0.0 0.00 0.00 0.00 86 1012.8
20260504120132 6 207 0.0 0.0 0.00 0.00 0.00 86 1012.8
20260504120128 7 207 0.0 0.0 0.00 0.00 0.00 86 1012.8
20260504120122 7 207 0.0 0.0 0.00 0.00 0.00 86 1012.8
20260504120108 7 207 0.0 0.0 0.00 0.00 0.00 86 1012.9
20260504110651 2 209 0.0 1.6 0.00 0.00 0.00 83 1012.8
20260504110550 2 209 0.0 1.6 0.00 0.00 0.00 83 1012.8
20260504110452 1 209 0.0 1.6 0.00 0.00 0.00 83 1012.7
20260504110432 1 207 0.0 1.6 0.00 0.00 0.00 84 1012.8
20260504110421 1 209 0.0 1.6 0.00 0.00 0.00 83 1012.8
20260504110302 1 209 0.0 1.6 0.00 0.00 0.00 84 1012.8
20260504110109 1 207 0.0 1.6 0.00 0.00 0.00 84 1012.8
20260504100539 0 201 0.0 3.2 0.00 0.00 0.00 86 1013.0
20260504100436 0 201 0.0 3.2 0.00 0.00 0.00 86 1013.0
20260504100337 0 201 0.0 4.8 0.00 0.00 0.00 86 1013.0
20260504100236 0 201 0.0 4.8 0.00 0.00 0.00 86 1013.0
20260504100135 0 201 0.0 4.8 0.00 0.00 0.00 86 1013.0
20260504082005 1 220 0.0 3.2 0.00 0.00 0.00 87 1013.1
20260504081859 1 220 0.0 1.6 0.00 0.00 0.00 87 1013.2
20260504081759 1 220 0.0 0.0 0.00 0.00 0.00 87 1013.2
20260504081731 1 220 0.0 0.0 0.00 0.00 0.00 87 1013.2
20260504081721 1 220 0.0 0.0 0.00 0.00 0.00 87 1013.2
20260504081603 1 220 0.0 0.0 0.00 0.00 0.00 87 1013.2
20260504081347 1 220 0.0 0.0 0.00 0.00 0.00 87 1013.2
20260504081240 1 220 0.0 3.2 0.00 0.00 0.00 87 1013.2
20260504081216 1 220 0.0 3.2 0.00 0.00 0.00 87 1013.2
20260504081207 1 220 0.0 3.2 0.00 0.00 0.00 87 1013.2
20260504081047 1 220 0.0 3.2 0.00 0.00 0.00 87 1013.2
20260504080826 1 220 0.0 3.2 0.00 0.00 0.00 87 1013.2
20260504080727 1 220 0.0 3.2 0.00 0.00 0.00 87 1013.2
20260504080643 1 220 0.0 3.2 0.00 0.00 0.00 87 1013.2
20260504080635 1 220 0.0 3.2 0.00 0.00 0.00 87 1013.2
20260504080414 1 220 0.0 3.2 0.00 0.00 0.00 87 1013.2
20260504080315 1 220 0.0 3.2 0.00 0.00 0.00 87 1013.1
20260504080209 1 220 1.6 3.2 0.00 0.00 0.00 87 1013.1
20260504080109 1 220 1.6 3.2 0.00 0.00 0.00 87 1013.1
20260504070321 2 220 3.2 4.8 0.00 0.00 0.00 87 1013.1
20260504070221 2 220 3.2 4.8 0.00 0.00 0.00 87 1013.1
20260504070115 2 220 3.2 4.8 0.00 0.00 0.00 87 1013.1
20260504060242 2 229 1.6 4.8 0.00 0.00 0.00 83 1013.0
20260504050751 4 230 4.8 8.0 0.00 0.00 0.00 78 1013.1
20260504050707 4 230 4.8 8.0 0.00 0.00 0.00 78 1013.1
20260504050701 4 230 4.8 8.0 0.00 0.00 0.00 78 1013.1
20260504050445 5 230 4.8 8.0 0.00 0.00 0.00 78 1013.2
20260504050339 5 229 4.8 8.0 0.00 0.00 0.00 78 1013.2
20260504050239 5 240 3.2 8.0 0.00 0.00 0.00 78 1013.1
20260504050133 5 240 3.2 8.0 0.00 0.00 0.00 78 1013.2
20260504045926 5 240 3.2 8.0 0.00 0.00 0.00 78 1013.2
20260504045906 5 240 3.2 8.0 0.00 0.00 0.00 77 1013.2
20260504045901 5 242 3.2 6.4 0.00 0.00 0.00 76 1013.2
20260504045851 5 240 3.2 8.0 0.00 0.00 0.00 77 1013.2
20260504045514 5 242 3.2 6.4 0.00 0.00 0.00 76 1013.2
20260504045415 5 242 3.2 6.4 0.00 0.00 0.00 76 1013.2
20260504045309 5 242 3.2 6.4 0.00 0.00 0.00 76 1013.2
20260504045227 5 242 3.2 6.4 0.00 0.00 0.00 75 1013.2
20260504045219 5 242 3.2 6.4 0.00 0.00 0.00 76 1013.2
20260504045003 5 242 3.2 6.4 0.00 0.00 0.00 75 1013.1
20260504044856 5 242 4.8 6.4 0.00 0.00 0.00 74 1013.1
20260504044757 5 242 4.8 6.4 0.00 0.00 0.00 74 1013.1
20260504044650 5 242 4.8 6.4 0.00 0.00 0.00 74 1013.2
20260504044551 5 242 4.8 6.4 0.00 0.00 0.00 74 1013.2
20260504044445 5 242 4.8 6.4 0.00 0.00 0.00 74 1013.2
20260504044345 5 242 4.8 6.4 0.00 0.00 0.00 73 1013.2
20260504044239 5 242 4.8 6.4 0.00 0.00 0.00 73 1013.2
20260504044139 5 242 4.8 6.4 0.00 0.00 0.00 73 1013.2
20260504044056 5 242 4.8 6.4 0.00 0.00 0.00 73 1013.2
20260504044047 5 242 4.8 6.4 0.00 0.00 0.00 73 1013.3
20260504043828 6 242 3.2 6.4 0.00 0.00 0.00 72 1013.2
20260504043727 6 242 3.2 6.4 0.00 0.00 0.00 72 1013.2
20260504043620 6 242 3.2 6.4 0.00 0.00 0.00 72 1013.1
20260504043521 6 242 3.2 6.4 0.00 0.00 0.00 72 1013.2
20260504043416 6 242 3.2 6.4 0.00 0.00 0.00 72 1013.1
20260504043315 6 242 3.2 6.4 0.00 0.00 0.00 72 1013.1
20260504043210 6 242 3.2 6.4 0.00 0.00 0.00 72 1013.1
20260504043126 6 242 1.6 4.8 0.00 0.00 0.00 73 1013.1
20260504043119 6 242 1.6 4.8 0.00 0.00 0.00 73 1013.1
20260504042903 6 242 1.6 4.8 0.00 0.00 0.00 73 1013.1
20260504042757 6 242 1.6 3.2 0.00 0.00 0.00 73 1013.1
20260504042656 6 242 1.6 9.7 0.00 0.00 0.00 73 1013.1
20260504042551 6 242 1.6 9.7 0.00 0.00 0.00 73 1013.1
20260504042451 6 242 1.6 9.7 0.00 0.00 0.00 73 1013.1
20260504042345 6 242 1.6 9.7 0.00 0.00 0.00 72 1013.1
20260504042245 6 242 1.6 9.7 0.00 0.00 0.00 71 1013.1
20260504042140 6 242 1.6 9.7 0.00 0.00 0.00 70 1013.1
20260504042056 6 242 3.2 9.7 0.00 0.00 0.00 69 1013.1
20260504042049 6 242 1.6 9.7 0.00 0.00 0.00 69 1013.1
20260504041832 6 242 3.2 9.7 0.00 0.00 0.00 68 1013.0
20260504041749 6 242 3.2 9.7 0.00 0.00 0.00 67 1013.0
20260504041742 6 242 3.2 9.7 0.00 0.00 0.00 67 1013.0
20260504041520 6 242 4.8 9.7 0.00 0.00 0.00 67 1013.0
20260504041421 6 242 4.8 9.7 0.00 0.00 0.00 67 1013.0
20260504041315 6 242 4.8 9.7 0.00 0.00 0.00 67 1013.1
20260504041215 6 243 4.8 9.7 0.00 0.00 0.00 67 1013.1
20260504041109 6 243 4.8 9.7 0.00 0.00 0.00 66 1013.0
20260504041008 6 244 4.8 9.7 0.00 0.00 0.00 66 1013.1
20260504040903 6 244 4.8 11.3 0.00 0.00 0.00 65 1013.1
20260504040802 6 244 6.4 11.3 0.00 0.00 0.00 65 1013.1
20260504040656 6 219 6.4 11.3 0.00 0.00 0.00 65 1013.1
20260504040556 6 213 6.4 11.3 0.00 0.00 0.00 65 1013.1
20260504040449 6 213 6.4 11.3 0.00 0.00 0.00 65 1013.1
20260504040350 7 212 6.4 11.3 0.00 0.00 0.00 65 1013.1
20260504040245 7 212 6.4 11.3 0.00 0.00 0.00 65 1013.1
20260504040144 7 211 6.4 11.3 0.00 0.00 0.00 65 1013.1
20260504040039 7 210 6.4 11.3 0.00 0.00 0.00 65 1013.1
20260504035938 7 209 6.4 11.3 0.00 0.00 0.00 65 1013.1
20260504035832 7 211 6.4 11.3 0.00 0.00 0.00 65 1013.1
20260504035732 7 211 6.4 11.3 0.00 0.00 0.00 65 1013.1
20260504035626 7 211 6.4 11.3 0.00 0.00 0.00 65 1013.0
20260504035526 7 212 6.4 11.3 0.00 0.00 0.00 65 1013.1
20260504035421 7 211 6.4 11.3 0.00 0.00 0.00 65 1013.1
20260504035320 7 209 6.4 11.3 0.00 0.00 0.00 65 1013.1
20260504035215 7 209 6.4 11.3 0.00 0.00 0.00 65 1013.0
20260504035114 7 209 6.4 11.3 0.00 0.00 0.00 66 1013.0
20260504035009 7 208 6.4 11.3 0.00 0.00 0.00 66 1013.0
20260504034908 7 209 6.4 9.7 0.00 0.00 0.00 66 1013.0
20260504034803 7 198 4.8 9.7 0.00 0.00 0.00 66 1013.0
20260504034702 7 198 4.8 9.7 0.00 0.00 0.00 67 1013.0
20260504034556 7 194 4.8 9.7 0.00 0.00 0.00 67 1013.0
20260504034456 7 195 4.8 9.7 0.00 0.00 0.00 67 1013.0
20260504034350 7 195 4.8 9.7 0.00 0.00 0.00 67 1013.0
20260504034250 7 196 4.8 9.7 0.00 0.00 0.00 67 1012.9
20260504034145 7 196 6.4 9.7 0.00 0.00 0.00 67 1013.0
20260504034043 7 196 6.4 9.7 0.00 0.00 0.00 68 1012.9
20260504033938 7 196 6.4 9.7 0.00 0.00 0.00 69 1012.9
20260504033854 7 197 6.4 9.7 0.00 0.00 0.00 69 1012.9
20260504033848 7 197 6.4 9.7 0.00 0.00 0.00 69 1012.9
20260504033632 7 198 6.4 9.7 0.00 0.00 0.00 69 1012.9
20260504033527 7 198 6.4 9.7 0.00 0.00 0.00 69 1012.9
20260504033427 7 198 6.4 9.7 0.00 0.00 0.00 68 1012.9
20260504033342 7 198 6.4 9.7 0.00 0.00 0.00 67 1012.9
20260504033335 7 198 6.4 9.7 0.00 0.00 0.00 68 1012.9
20260504033114 7 200 6.4 9.7 0.00 0.00 0.00 66 1012.9
20260504033014 7 200 4.8 9.7 0.00 0.00 0.00 65 1012.9
20260504032908 7 200 4.8 8.0 0.00 0.00 0.00 65 1012.9
20260504032826 7 199 4.8 11.3 0.00 0.00 0.00 65 1012.9
20260504032818 7 200 4.8 11.3 0.00 0.00 0.00 65 1012.9
20260504032602 7 199 4.8 11.3 0.00 0.00 0.00 65 1012.9
20260504032457 7 198 4.8 11.3 0.00 0.00 0.00 65 1012.9
20260504032355 7 198 6.4 11.3 0.00 0.00 0.00 65 1012.9
20260504032250 7 198 6.4 11.3 0.00 0.00 0.00 65 1012.9
20260504032150 7 198 6.4 11.3 0.00 0.00 0.00 66 1012.9
20260504032123 7 200 6.4 11.3 0.00 0.00 0.00 66 1012.9
20260504032118 7 200 6.4 11.3 0.00 0.00 0.00 67 1012.9
20260504032109 7 199 6.4 11.3 0.00 0.00 0.00 66 1012.9
20260504031738 7 198 6.4 11.3 0.00 0.00 0.00 67 1012.8
20260504031632 7 198 6.4 11.3 0.00 0.00 0.00 68 1012.8
20260504031532 7 199 6.4 11.3 0.00 0.00 0.00 68 1012.8
20260504031427 6 200 6.4 11.3 0.00 0.00 0.00 68 1012.8
20260504031325 6 206 6.4 11.3 0.00 0.00 0.00 69 1012.8
20260504031220 6 206 6.4 11.3 0.00 0.00 0.00 69 1012.8
20260504031120 6 207 6.4 11.3 0.00 0.00 0.00 68 1012.8
20260504031037 6 219 6.4 11.3 0.00 0.00 0.00 67 1012.7
20260504031029 6 211 6.4 11.3 0.00 0.00 0.00 67 1012.7
20260504030807 6 227 6.4 11.3 0.00 0.00 0.00 68 1012.7
20260504030708 6 227 6.4 11.3 0.00 0.00 0.00 68 1012.7
20260504030603 6 227 6.4 9.7 0.00 0.00 0.00 68 1012.7
20260504030502 6 229 6.4 9.7 0.00 0.00 0.00 68 1012.7
20260504030356 6 229 6.4 9.7 0.00 0.00 0.00 69 1012.7
20260504030256 6 227 6.4 9.7 0.00 0.00 0.00 69 1012.7
20260504030150 6 225 6.4 9.7 0.00 0.00 0.00 69 1012.7
20260504030050 6 223 6.4 9.7 0.00 0.00 0.00 69 1012.7
20260504030031 6 222 6.4 9.7 0.00 0.00 0.00 69 1012.6
20260504030026 6 215 6.4 9.7 0.00 0.00 0.00 70 1012.7
20260504030017 6 222 6.4 9.7 0.00 0.00 0.00 69 1012.7
20260504025644 6 214 6.4 9.7 0.00 0.00 0.00 70 1012.7
20260504025544 6 215 6.4 9.7 0.00 0.00 0.00 71 1012.7
20260504025442 6 204 6.4 9.7 0.00 0.00 0.00 71 1012.7
20260504025342 6 202 6.4 9.7 0.00 0.00 0.00 71 1012.7
20260504025239 6 204 6.4 9.7 0.00 0.00 0.00 71 1012.7
20260504025140 6 205 6.4 9.7 0.00 0.00 0.00 71 1012.8
20260504025131 6 206 6.4 9.7 0.00 0.00 0.00 70 1012.8
20260504025118 6 205 6.4 9.7 0.00 0.00 0.00 71 1012.7
20260504024959 6 205 6.4 9.7 0.00 0.00 0.00 70 1012.7
20260504024838 6 205 6.4 9.7 0.00 0.00 0.00 70 1012.7
20260504024657 6 209 4.8 9.7 0.00 0.00 0.00 69 1012.7
20260504024652 6 209 4.8 8.0 0.00 0.00 0.00 69 1012.7
20260504024643 6 207 6.4 9.7 0.00 0.00 0.00 69 1012.7
20260504024312 6 210 4.8 8.0 0.00 0.00 0.00 69 1012.7
20260504024205 6 211 4.8 8.0 0.00 0.00 0.00 70 1012.7
20260504024106 6 211 4.8 8.0 0.00 0.00 0.00 70 1012.7
20260504024000 6 213 4.8 8.0 0.00 0.00 0.00 70 1012.8
20260504023900 6 213 4.8 8.0 0.00 0.00 0.00 70 1012.7
20260504023756 6 213 3.2 8.0 0.00 0.00 0.00 69 1012.7
20260504023654 6 213 3.2 6.4 0.00 0.00 0.00 69 1012.7
20260504023548 7 214 3.2 6.4 0.00 0.00 0.00 69 1012.7
20260504023448 7 214 3.2 6.4 0.00 0.00 0.00 69 1012.7
20260504023342 7 214 3.2 6.4 0.00 0.00 0.00 69 1012.7
20260504023241 7 214 3.2 8.0 0.00 0.00 0.00 68 1012.8
20260504023136 7 215 3.2 8.0 0.00 0.00 0.00 68 1012.7
20260504023053 7 215 3.2 8.0 0.00 0.00 0.00 68 1012.8
20260504023049 7 215 3.2 8.0 0.00 0.00 0.00 68 1012.7
20260504023043 7 215 3.2 8.0 0.00 0.00 0.00 68 1012.8
20260504023027 7 215 3.2 8.0 0.00 0.00 0.00 68 1012.8
20260504022757 7 215 3.2 8.0 0.00 0.00 0.00 67 1012.7
20260504022747 7 215 3.2 8.0 0.00 0.00 0.00 67 1012.7
20260504022418 7 215 3.2 8.0 0.00 0.00 0.00 67 1012.7
20260504022312 7 215 4.8 8.0 0.00 0.00 0.00 66 1012.7
20260504022212 7 215 4.8 8.0 0.00 0.00 0.00 66 1012.7
20260504022106 7 215 4.8 8.0 0.00 0.00 0.00 65 1012.7
20260504022006 7 215 4.8 8.0 0.00 0.00 0.00 66 1012.7
20260504021900 7 215 4.8 8.0 0.00 0.00 0.00 67 1012.7
20260504021800 7 215 4.8 9.7 0.00 0.00 0.00 68 1012.8
20260504021655 7 215 4.8 9.7 0.00 0.00 0.00 68 1012.8
20260504021610 7 215 4.8 9.7 0.00 0.00 0.00 67 1012.8
20260504021603 7 215 4.8 9.7 0.00 0.00 0.00 68 1012.7
20260504021348 7 215 4.8 9.7 0.00 0.00 0.00 66 1012.7
20260504021242 7 215 4.8 9.7 0.00 0.00 0.00 63 1012.7
20260504021142 7 217 4.8 9.7 0.00 0.00 0.00 61 1012.7
20260504021036 7 217 4.8 9.7 0.00 0.00 0.00 60 1012.7
20260504020936 7 217 4.8 9.7 0.00 0.00 0.00 60 1012.6
20260504020832 8 217 4.8 9.7 0.00 0.00 0.00 60 1012.7
20260504020730 8 217 4.8 9.7 0.00 0.00 0.00 59 1012.7
20260504020624 8 217 6.4 9.7 0.00 0.00 0.00 59 1012.7
20260504020524 8 217 6.4 9.7 0.00 0.00 0.00 60 1012.8
20260504020418 8 217 6.4 9.7 0.00 0.00 0.00 60 1012.8
20260504020318 8 217 6.4 9.7 0.00 0.00 0.00 60 1012.8
20260504020212 8 217 6.4 9.7 0.00 0.00 0.00 60 1012.8
20260504020112 8 217 6.4 9.7 0.00 0.00 0.00 61 1012.8
20260504020006 8 217 6.4 9.7 0.00 0.00 0.00 61 1012.8
20260504015906 8 218 6.4 9.7 0.00 0.00 0.00 62 1012.8
20260504015759 8 221 6.4 9.7 0.00 0.00 0.00 63 1012.7
20260504015700 8 223 4.8 8.0 0.00 0.00 0.00 62 1012.8
20260504015553 8 226 4.8 8.0 0.00 0.00 0.00 60 1012.7
20260504015454 8 227 4.8 8.0 0.00 0.00 0.00 60 1012.7
20260504015446 8 228 4.8 8.0 0.00 0.00 0.00 59 1012.7
20260504015442 8 227 4.8 8.0 0.00 0.00 0.00 59 1012.7
20260504015429 8 227 4.8 8.0 0.00 0.00 0.00 60 1012.7
20260504015153 8 227 4.8 8.0 0.00 0.00 0.00 59 1012.7
20260504015011 8 229 4.8 8.0 0.00 0.00 0.00 59 1012.7
20260504015001 8 228 4.8 8.0 0.00 0.00 0.00 59 1012.7
20260504014842 8 229 4.8 8.0 0.00 0.00 0.00 59 1012.7
20260504014644 8 229 4.8 8.0 0.00 0.00 0.00 59 1012.7
20260504014636 8 229 4.8 8.0 0.00 0.00 0.00 59 1012.7
20260504014420 8 229 4.8 8.0 0.00 0.00 0.00 60 1012.7
20260504014315 8 229 4.8 8.0 0.00 0.00 0.00 60 1012.6
20260504014213 8 229 4.8 6.4 0.00 0.00 0.00 59 1012.7
20260504014128 8 229 4.8 6.4 0.00 0.00 0.00 58 1012.6
20260504014122 8 229 4.8 6.4 0.00 0.00 0.00 59 1012.6
20260504013902 8 229 4.8 8.0 0.00 0.00 0.00 58 1012.6
20260504013802 8 229 4.8 8.0 0.00 0.00 0.00 58 1012.6
20260504013655 8 229 4.8 8.0 0.00 0.00 0.00 58 1012.5
20260504013613 8 229 4.8 8.0 0.00 0.00 0.00 57 1012.5
20260504013606 8 229 4.8 8.0 0.00 0.00 0.00 58 1012.5
20260504013405 8 230 4.8 8.0 0.00 0.00 0.00 56 1012.5
20260504013359 8 229 4.8 8.0 0.00 0.00 0.00 57 1012.5
20260504013144 8 230 4.8 8.0 0.00 0.00 0.00 56 1012.5
20260504013038 8 230 4.8 8.0 0.00 0.00 0.00 56 1012.5
20260504012938 8 230 4.8 8.0 0.00 0.00 0.00 55 1012.5
20260504012832 9 230 4.8 8.0 0.00 0.00 0.00 55 1012.5
20260504012732 9 230 4.8 8.0 0.00 0.00 0.00 55 1012.5
20260504012626 9 230 4.8 8.0 0.00 0.00 0.00 54 1012.5
20260504012526 9 230 4.8 8.0 0.00 0.00 0.00 54 1012.5
20260504012420 9 230 4.8 8.0 0.00 0.00 0.00 53 1012.5
20260504012320 9 230 4.8 8.0 0.00 0.00 0.00 53 1012.4
20260504012216 9 230 4.8 8.0 0.00 0.00 0.00 52 1012.5
20260504012114 9 230 4.8 8.0 0.00 0.00 0.00 52 1012.4
20260504012009 9 230 4.8 8.0 0.00 0.00 0.00 52 1012.5
20260504011908 9 232 4.8 8.0 0.00 0.00 0.00 52 1012.4
20260504011802 9 232 4.8 8.0 0.00 0.00 0.00 51 1012.4
20260504011720 9 232 4.8 8.0 0.00 0.00 0.00 51 1012.4
20260504011713 9 232 4.8 8.0 0.00 0.00 0.00 51 1012.4
20260504011455 9 229 4.8 8.0 0.00 0.00 0.00 51 1012.4
20260504011350 9 229 4.8 8.0 0.00 0.00 0.00 51 1012.4
20260504011250 9 229 4.8 8.0 0.00 0.00 0.00 51 1012.4
20260504011207 9 226 4.8 8.0 0.00 0.00 0.00 51 1012.4
20260504011200 9 227 4.8 8.0 0.00 0.00 0.00 51 1012.4
20260504010938 9 225 4.8 9.7 0.00 0.00 0.00 50 1012.4
20260504010838 9 225 4.8 9.7 0.00 0.00 0.00 50 1012.3
20260504010732 9 225 4.8 9.7 0.00 0.00 0.00 50 1012.3
20260504010632 10 225 4.8 9.7 0.00 0.00 0.00 50 1012.4
20260504010528 10 225 4.8 9.7 0.00 0.00 0.00 50 1012.3
20260504010444 10 224 4.8 9.7 0.00 0.00 0.00 49 1012.3
20260504010436 10 225 4.8 9.7 0.00 0.00 0.00 49 1012.4
20260504010220 10 224 4.8 9.7 0.00 0.00 0.00 49 1012.3
20260504010114 10 224 4.8 9.7 0.00 0.00 0.00 48 1012.3
20260504010014 10 224 4.8 9.7 0.00 0.00 0.00 48 1012.3
20260504005951 10 223 4.8 9.7 0.00 0.00 0.00 48 1012.4
20260504005946 10 224 4.8 9.7 0.00 0.00 0.00 47 1012.4
20260504005937 10 224 4.8 9.7 0.00 0.00 0.00 48 1012.3
20260504005819 10 223 4.8 9.7 0.00 0.00 0.00 48 1012.4
20260504005813 10 224 4.8 9.7 0.00 0.00 0.00 48 1012.3
20260504005757 10 224 4.8 9.7 0.00 0.00 0.00 48 1012.3
20260504005638 10 224 4.8 9.7 0.00 0.00 0.00 48 1012.3
20260504005150 10 225 4.8 9.7 0.00 0.00 0.00 47 1012.3
20260504005045 11 224 4.8 9.7 0.00 0.00 0.00 47 1012.3
20260504004944 11 225 4.8 9.7 0.00 0.00 0.00 46 1012.3
20260504004838 11 225 4.8 9.7 0.00 0.00 0.00 46 1012.3
20260504004738 11 225 4.8 9.7 0.00 0.00 0.00 46 1012.3
20260504004632 11 242 4.8 9.7 0.00 0.00 0.00 45 1012.3
20260504004532 11 245 4.8 9.7 0.00 0.00 0.00 45 1012.3
20260504004425 11 245 4.8 9.7 0.00 0.00 0.00 45 1012.3
20260504004343 11 246 4.8 9.7 0.00 0.00 0.00 44 1012.3
20260504004336 11 245 4.8 9.7 0.00 0.00 0.00 44 1012.3
20260504004120 11 246 4.8 9.7 0.00 0.00 0.00 44 1012.2
20260504004014 12 246 4.8 9.7 0.00 0.00 0.00 44 1012.2
20260504003913 12 246 4.8 9.7 0.00 0.00 0.00 44 1012.2
20260504003808 12 246 4.8 9.7 0.00 0.00 0.00 44 1012.2
20260504003708 12 246 4.8 9.7 0.00 0.00 0.00 43 1012.2
20260504003604 12 246 4.8 9.7 0.00 0.00 0.00 43 1012.2
20260504003558 12 246 4.8 12.9 0.00 0.00 0.00 43 1012.2
20260504003553 12 246 4.8 12.9 0.00 0.00 0.00 43 1012.1
20260504003542 12 246 4.8 12.9 0.00 0.00 0.00 43 1012.2
20260504003420 12 246 4.8 12.9 0.00 0.00 0.00 43 1012.2
20260504003107 12 248 4.8 12.9 0.00 0.00 0.00 43 1012.1
20260504003100 12 248 4.8 12.9 0.00 0.00 0.00 42 1012.1
20260504002844 12 248 4.8 12.9 0.00 0.00 0.00 43 1012.1
20260504002739 12 249 6.4 12.9 0.00 0.00 0.00 43 1012.1
20260504002638 12 249 6.4 12.9 0.00 0.00 0.00 43 1012.1
20260504002532 13 250 6.4 16.1 0.00 0.00 0.00 42 1012.1
20260504002432 13 247 6.4 16.1 0.00 0.00 0.00 42 1012.1
20260504002326 13 247 6.4 16.1 0.00 0.00 0.00 42 1012.1
20260504002226 13 247 8.0 16.1 0.00 0.00 0.00 42 1012.1
20260504002119 13 249 8.0 16.1 0.00 0.00 0.00 42 1012.1
20260504002021 13 248 8.0 16.1 0.00 0.00 0.00 42 1012.1
20260504001915 13 248 8.0 16.1 0.00 0.00 0.00 42 1012.1
20260504001814 13 249 8.0 16.1 0.00 0.00 0.00 42 1012.1
20260504001709 13 243 8.0 16.1 0.00 0.00 0.00 42 1012.1
20260504001608 13 242 8.0 16.1 0.00 0.00 0.00 41 1012.1
20260504001502 13 258 8.0 17.7 0.00 0.00 0.00 41 1012.0
20260504001402 13 258 8.0 17.7 0.00 0.00 0.00 42 1012.0
20260504001257 13 260 8.0 17.7 0.00 0.00 0.00 41 1012.1
20260504001156 13 228 8.0 17.7 0.00 0.00 0.00 41 1012.0
20260504001051 13 276 8.0 17.7 0.00 0.00 0.00 42 1012.0
20260504000950 13 245 8.0 17.7 0.00 0.00 0.00 41 1012.0
20260504000844 13 254 8.0 17.7 0.00 0.00 0.00 42 1012.0
20260504000744 13 242 8.0 17.7 0.00 0.00 0.00 41 1011.9
20260504000638 13 245 8.0 17.7 0.00 0.00 0.00 41 1011.9
20260504000555 13 236 8.0 17.7 0.00 0.00 0.00 41 1011.9
20260504000548 13 246 8.0 17.7 0.00 0.00 0.00 41 1011.9
20260504000331 13 233 8.0 17.7 0.00 0.00 0.00 41 1011.9
20260504000227 13 233 8.0 17.7 0.00 0.00 0.00 40 1011.9
20260504000127 13 240 8.0 17.7 0.00 0.00 0.00 40 1011.8
20260504000022 13 249 8.0 17.7 0.00 0.00 0.00 41 1011.9
20260503235919 13 258 8.0 17.7 0.00 0.00 0.00 40 1011.8
20260503235814 13 249 8.0 17.7 0.00 0.00 0.00 40 1011.8
20260503235714 13 244 8.0 17.7 0.00 0.00 0.00 40 1011.8
20260503235608 13 252 8.0 17.7 0.00 0.00 0.00 40 1011.8
20260503235525 13 245 8.0 16.1 0.00 0.00 0.00 40 1011.7
20260503235518 13 263 8.0 16.1 0.00 0.00 0.00 39 1011.8
20260503235304 13 247 8.0 16.1 0.00 0.00 0.00 40 1011.7
20260503235219 14 257 9.7 20.9 0.00 0.00 0.00 39 1011.7
20260503235211 14 244 9.7 20.9 0.00 0.00 0.00 39 1011.7
20260503235015 14 242 9.7 20.9 0.00 0.00 0.00 39 1011.7
20260503235007 14 225 9.7 20.9 0.00 0.00 0.00 39 1011.7
20260503234823 14 253 11.3 20.9 0.00 0.00 0.00 39 1011.7
20260503234819 14 252 12.9 20.9 0.00 0.00 0.00 38 1011.7
20260503234810 14 232 11.3 20.9 0.00 0.00 0.00 39 1011.7
20260503234439 14 259 12.9 20.9 0.00 0.00 0.00 38 1011.7
20260503234332 14 251 12.9 20.9 0.00 0.00 0.00 38 1011.6
20260503234250 14 267 12.9 20.9 0.00 0.00 0.00 38 1011.6
20260503234243 14 259 12.9 20.9 0.00 0.00 0.00 38 1011.7
20260503234044 14 300 12.9 27.4 0.00 0.00 0.00 37 1011.6
20260503234036 14 301 12.9 27.4 0.00 0.00 0.00 38 1011.6
20260503233820 14 265 11.3 27.4 0.00 0.00 0.00 37 1011.6
20260503233715 14 240 11.3 27.4 0.00 0.00 0.00 38 1011.6
20260503233632 14 252 11.3 27.4 0.00 0.00 0.00 37 1011.6
20260503233624 14 271 11.3 27.4 0.00 0.00 0.00 37 1011.6
20260503233408 14 249 11.3 27.4 0.00 0.00 0.00 39 1011.6
20260503233302 15 261 11.3 27.4 0.00 0.00 0.00 37 1011.6
20260503233202 15 256 11.3 27.4 0.00 0.00 0.00 37 1011.6
20260503233119 15 254 12.9 27.4 0.00 0.00 0.00 37 1011.6
20260503233111 15 269 12.9 27.4 0.00 0.00 0.00 37 1011.6
20260503232851 15 245 12.9 27.4 0.00 0.00 0.00 37 1011.6
20260503232750 15 280 12.9 27.4 0.00 0.00 0.00 37 1011.6
20260503232644 15 261 12.9 27.4 0.00 0.00 0.00 36 1011.6
20260503232601 15 252 12.9 27.4 0.00 0.00 0.00 37 1011.6
20260503232553 15 244 12.9 27.4 0.00 0.00 0.00 37 1011.6
20260503232338 15 244 12.9 27.4 0.00 0.00 0.00 36 1011.5
20260503232315 15 224 12.9 24.1 0.00 0.00 0.00 36 1011.6
20260503232305 15 188 12.9 27.4 0.00 0.00 0.00 37 1011.6
20260503232144 15 277 12.9 27.4 0.00 0.00 0.00 36 1011.6
20260503231926 15 226 12.9 25.7 0.00 0.00 0.00 36 1011.6
20260503231821 15 325 12.9 25.7 0.00 0.00 0.00 36 1011.5
20260503231720 15 237 12.9 25.7 0.00 0.00 0.00 36 1011.6
20260503231653 15 259 12.9 25.7 0.00 0.00 0.00 37 1011.5
20260503231643 15 248 12.9 25.7 0.00 0.00 0.00 37 1011.6
20260503231523 15 270 12.9 25.7 0.00 0.00 0.00 36 1011.5
20260503231308 15 244 12.9 25.7 0.00 0.00 0.00 37 1011.5
20260503231202 15 260 12.9 25.7 0.00 0.00 0.00 37 1011.5
20260503231102 15 240 12.9 25.7 0.00 0.00 0.00 36 1011.5
20260503230957 15 251 14.5 25.7 0.00 0.00 0.00 36 1011.5
20260503230856 15 257 14.5 25.7 0.00 0.00 0.00 37 1011.6
20260503230828 15 239 14.5 25.7 0.00 0.00 0.00 36 1011.6
20260503230823 15 267 14.5 25.7 0.00 0.00 0.00 35 1011.5
20260503230815 15 267 14.5 25.7 0.00 0.00 0.00 36 1011.6
20260503230444 15 221 12.9 25.7 0.00 0.00 0.00 36 1011.5
20260503230338 15 258 12.9 25.7 0.00 0.00 0.00 35 1011.5
20260503230238 15 221 12.9 30.6 0.00 0.00 0.00 36 1011.6
20260503230133 15 247 12.9 30.6 0.00 0.00 0.00 36 1011.5
20260503230032 15 298 12.9 30.6 0.00 0.00 0.00 35 1011.5
20260503225927 15 202 11.3 30.6 0.00 0.00 0.00 37 1011.6
20260503225826 15 252 11.3 30.6 0.00 0.00 0.00 36 1011.5
20260503225720 15 259 11.3 30.6 0.00 0.00 0.00 36 1011.5
20260503225620 15 248 12.9 30.6 0.00 0.00 0.00 36 1011.5
20260503225515 15 281 12.9 30.6 0.00 0.00 0.00 36 1011.5
20260503225414 15 232 12.9 30.6 0.00 0.00 0.00 35 1011.5
20260503225309 15 235 14.5 30.6 0.00 0.00 0.00 35 1011.5
20260503225208 15 232 12.9 30.6 0.00 0.00 0.00 35 1011.5
20260503225102 15 244 12.9 30.6 0.00 0.00 0.00 35 1011.5
20260503225019 15 278 11.3 30.6 0.00 0.00 0.00 36 1011.6
20260503225012 15 230 12.9 30.6 0.00 0.00 0.00 36 1011.5
20260503224836 15 279 11.3 30.6 0.00 0.00 0.00 35 1011.5
20260503224831 16 240 11.3 30.6 0.00 0.00 0.00 37 1011.5
20260503224821 15 228 11.3 30.6 0.00 0.00 0.00 35 1011.4
20260503224445 16 275 11.3 30.6 0.00 0.00 0.00 36 1011.5
20260503224344 16 277 11.3 30.6 0.00 0.00 0.00 36 1011.5
20260503224238 16 246 11.3 29.0 0.00 0.00 0.00 36 1011.5
20260503224138 16 290 12.9 29.0 0.00 0.00 0.00 36 1011.5
20260503224056 16 329 16.1 29.0 0.00 0.00 0.00 36 1011.5
20260503224048 16 275 14.5 29.0 0.00 0.00 0.00 36 1011.5
20260503223826 16 259 16.1 29.0 0.00 0.00 0.00 35 1011.5
20260503223726 16 259 16.1 29.0 0.00 0.00 0.00 34 1011.5
20260503223621 16 252 16.1 29.0 0.00 0.00 0.00 34 1011.5
20260503223520 16 289 16.1 29.0 0.00 0.00 0.00 36 1011.5
20260503223438 16 260 16.1 29.0 0.00 0.00 0.00 35 1011.5
20260503223431 16 290 16.1 29.0 0.00 0.00 0.00 35 1011.5
20260503223231 16 262 14.5 27.4 0.00 0.00 0.00 34 1011.5
20260503223224 16 261 14.5 27.4 0.00 0.00 0.00 36 1011.5
20260503223002 16 248 12.9 27.4 0.00 0.00 0.00 36 1011.5
20260503222903 16 261 12.9 27.4 0.00 0.00 0.00 36 1011.6
20260503222756 16 302 11.3 20.9 0.00 0.00 0.00 37 1011.6
20260503222656 16 286 11.3 30.6 0.00 0.00 0.00 37 1011.5
20260503222550 16 311 11.3 30.6 0.00 0.00 0.00 35 1011.5
20260503222451 16 279 9.7 30.6 0.00 0.00 0.00 35 1011.5
20260503222427 16 290 12.9 30.6 0.00 0.00 0.00 36 1011.5
20260503222422 16 251 9.7 30.6 0.00 0.00 0.00 37 1011.5
20260503222417 16 286 11.3 30.6 0.00 0.00 0.00 37 1011.5
20260503222408 16 261 9.7 30.6 0.00 0.00 0.00 37 1011.5
20260503222237 16 261 9.7 30.6 0.00 0.00 0.00 36 1011.5
20260503222125 16 329 12.9 30.6 0.00 0.00 0.00 36 1011.5
20260503222114 16 342 9.7 30.6 0.00 0.00 0.00 36 1011.5
20260503221626 16 274 14.5 30.6 0.00 0.00 0.00 35 1011.5
20260503221521 16 259 14.5 30.6 0.00 0.00 0.00 36 1011.5
20260503221420 16 265 14.5 30.6 0.00 0.00 0.00 35 1011.5
20260503221315 16 329 14.5 30.6 0.00 0.00 0.00 35 1011.5
20260503221214 16 324 14.5 30.6 0.00 0.00 0.00 35 1011.5
20260503221131 16 288 14.5 30.6 0.00 0.00 0.00 36 1011.6
20260503221124 16 303 14.5 30.6 0.00 0.00 0.00 35 1011.5
20260503220902 16 325 14.5 30.6 0.00 0.00 0.00 35 1011.5
20260503220819 16 217 12.9 25.7 0.00 0.00 0.00 35 1011.4
20260503220812 16 295 12.9 30.6 0.00 0.00 0.00 35 1011.6
20260503220556 16 258 11.3 25.7 0.00 0.00 0.00 34 1011.5
20260503220451 16 281 11.3 25.7 0.00 0.00 0.00 34 1011.5
20260503220350 16 252 11.3 25.7 0.00 0.00 0.00 34 1011.5
20260503220308 16 273 11.3 25.7 0.00 0.00 0.00 35 1011.6
20260503220301 16 277 11.3 25.7 0.00 0.00 0.00 34 1011.6
20260503220038 16 341 11.3 25.7 0.00 0.00 0.00 36 1011.5
20260503215939 16 277 11.3 25.7 0.00 0.00 0.00 37 1011.6
20260503215832 16 264 11.3 25.7 0.00 0.00 0.00 35 1011.6
20260503215732 16 223 12.9 20.9 0.00 0.00 0.00 35 1011.5
20260503215627 16 228 12.9 32.2 0.00 0.00 0.00 36 1011.6
20260503215526 16 296 14.5 32.2 0.00 0.00 0.00 36 1011.5
20260503215420 16 266 14.5 32.2 0.00 0.00 0.00 37 1011.5
20260503215320 16 269 16.1 32.2 0.00 0.00 0.00 35 1011.5
20260503215214 16 268 16.1 32.2 0.00 0.00 0.00 36 1011.6
20260503215114 16 248 16.1 32.2 0.00 0.00 0.00 36 1011.6
20260503215008 16 245 16.1 32.2 0.00 0.00 0.00 37 1011.5
20260503214908 16 277 16.1 32.2 0.00 0.00 0.00 35 1011.5
20260503214802 16 275 16.1 32.2 0.00 0.00 0.00 35 1011.5
20260503214702 16 243 14.5 35.4 0.00 0.00 0.00 35 1011.6
20260503214557 16 235 14.5 35.4 0.00 0.00 0.00 34 1011.5
20260503214456 16 222 12.9 35.4 0.00 0.00 0.00 35 1011.5
20260503214351 16 259 12.9 35.4 0.00 0.00 0.00 36 1011.6
20260503214251 16 237 12.9 35.4 0.00 0.00 0.00 36 1011.5
20260503214144 16 313 12.9 35.4 0.00 0.00 0.00 35 1011.5
20260503214044 16 276 12.9 35.4 0.00 0.00 0.00 35 1011.5
20260503213938 16 263 12.9 35.4 0.00 0.00 0.00 35 1011.5
20260503213838 16 302 14.5 35.4 0.00 0.00 0.00 35 1011.5
20260503213755 16 238 14.5 35.4 0.00 0.00 0.00 35 1011.6
20260503213748 16 249 14.5 35.4 0.00 0.00 0.00 35 1011.4
20260503213526 16 222 14.5 35.4 0.00 0.00 0.00 35 1011.5
20260503213426 16 225 14.5 35.4 0.00 0.00 0.00 36 1011.5
20260503213320 16 259 16.1 35.4 0.00 0.00 0.00 39 1011.5
20260503213220 16 270 16.1 35.4 0.00 0.00 0.00 38 1011.4
20260503213114 16 243 16.1 35.4 0.00 0.00 0.00 37 1011.4
20260503213014 16 239 17.7 35.4 0.00 0.00 0.00 36 1011.4
20260503212909 16 227 16.1 35.4 0.00 0.00 0.00 36 1011.5
20260503212808 16 306 16.1 35.4 0.00 0.00 0.00 35 1011.5
20260503212724 16 275 12.9 33.8 0.00 0.00 0.00 38 1011.4
20260503212717 16 255 14.5 30.6 0.00 0.00 0.00 36 1011.4
20260503212457 16 296 14.5 33.8 0.00 0.00 0.00 34 1011.4
20260503212356 16 245 14.5 33.8 0.00 0.00 0.00 36 1011.5
20260503212250 16 263 12.9 33.8 0.00 0.00 0.00 35 1011.5
20260503212208 16 286 14.5 33.8 0.00 0.00 0.00 37 1011.5
20260503212201 16 331 12.9 33.8 0.00 0.00 0.00 35 1011.5
20260503211944 16 276 14.5 33.8 0.00 0.00 0.00 35 1011.5
20260503211839 16 223 14.5 33.8 0.00 0.00 0.00 36 1011.4
20260503211738 16 286 16.1 33.8 0.00 0.00 0.00 37 1011.4
20260503211655 16 248 16.1 33.8 0.00 0.00 0.00 36 1011.4
20260503211647 16 269 16.1 33.8 0.00 0.00 0.00 36 1011.5
20260503211426 16 290 16.1 33.8 0.00 0.00 0.00 36 1011.4
20260503211326 16 308 16.1 33.8 0.00 0.00 0.00 36 1011.4
20260503211220 16 198 16.1 33.8 0.00 0.00 0.00 36 1011.5
20260503211119 16 265 16.1 33.8 0.00 0.00 0.00 36 1011.4
20260503211014 16 257 17.7 33.8 0.00 0.00 0.00 37 1011.5
20260503210914 16 275 17.7 33.8 0.00 0.00 0.00 38 1011.4
20260503210808 16 276 17.7 33.8 0.00 0.00 0.00 35 1011.4
20260503210725 16 257 16.1 32.2 0.00 0.00 0.00 36 1011.4
20260503210718 16 263 17.7 33.8 0.00 0.00 0.00 36 1011.5
20260503210503 16 279 16.1 32.2 0.00 0.00 0.00 34 1011.4
20260503210357 16 252 16.1 32.2 0.00 0.00 0.00 36 1011.4
20260503210256 16 275 14.5 40.2 0.00 0.00 0.00 35 1011.5
20260503210151 16 271 14.5 40.2 0.00 0.00 0.00 37 1011.6
20260503210050 16 291 14.5 40.2 0.00 0.00 0.00 37 1011.6
20260503205945 16 318 12.9 40.2 0.00 0.00 0.00 39 1011.6
20260503205844 16 0 12.9 40.2 0.00 0.00 0.00 39 1011.5
20260503205738 16 329 12.9 40.2 0.00 0.00 0.00 38 1011.5
20260503205638 16 271 14.5 40.2 0.00 0.00 0.00 37 1011.4
20260503205532 16 233 14.5 40.2 0.00 0.00 0.00 36 1011.4
20260503205434 16 276 16.1 40.2 0.00 0.00 0.00 35 1011.5
20260503205427 16 248 16.1 40.2 0.00 0.00 0.00 36 1011.5
20260503205423 16 258 17.7 40.2 0.00 0.00 0.00 35 1011.5
20260503205410 16 281 17.7 40.2 0.00 0.00 0.00 36 1011.5
20260503205251 16 281 17.7 40.2 0.00 0.00 0.00 35 1011.5
20260503204915 16 199 16.1 40.2 0.00 0.00 0.00 37 1011.5
20260503204814 16 275 16.1 40.2 0.00 0.00 0.00 37 1011.5
20260503204708 16 260 16.1 40.2 0.00 0.00 0.00 36 1011.5
20260503204608 16 266 16.1 40.2 0.00 0.00 0.00 35 1011.5
20260503204502 16 238 17.7 40.2 0.00 0.00 0.00 37 1011.5
20260503204420 16 275 14.5 33.8 0.00 0.00 0.00 36 1011.5
20260503204412 16 260 16.1 40.2 0.00 0.00 0.00 37 1011.6
20260503204156 16 230 14.5 29.0 0.00 0.00 0.00 37 1011.5
20260503204051 16 306 14.5 29.0 0.00 0.00 0.00 36 1011.4
20260503203949 16 284 14.5 30.6 0.00 0.00 0.00 37 1011.4
20260503203908 16 269 16.1 32.2 0.00 0.00 0.00 37 1011.4
20260503203859 16 269 14.5 30.6 0.00 0.00 0.00 38 1011.4
20260503203701 16 291 14.5 32.2 0.00 0.00 0.00 38 1011.5
20260503203653 16 306 16.1 32.2 0.00 0.00 0.00 36 1011.5
20260503203432 16 309 16.1 32.2 0.00 0.00 0.00 37 1011.5
20260503203332 16 277 16.1 32.2 0.00 0.00 0.00 37 1011.4
20260503203227 16 269 16.1 32.2 0.00 0.00 0.00 37 1011.4
20260503203126 15 259 14.5 32.2 0.00 0.00 0.00 38 1011.5
20260503203021 15 292 12.9 32.2 0.00 0.00 0.00 36 1011.6
20260503202920 15 273 14.5 32.2 0.00 0.00 0.00 37 1011.5
20260503202837 16 255 16.1 33.8 0.00 0.00 0.00 36 1011.5
20260503202830 15 268 14.5 32.2 0.00 0.00 0.00 36 1011.5
20260503202632 16 221 14.5 33.8 0.00 0.00 0.00 35 1011.5
20260503202625 16 234 14.5 33.8 0.00 0.00 0.00 35 1011.5
20260503202402 16 215 16.1 33.8 0.00 0.00 0.00 36 1011.5
20260503202304 16 252 16.1 33.8 0.00 0.00 0.00 36 1011.6
20260503202219 16 303 17.7 33.8 0.00 0.00 0.00 36 1011.6
20260503202211 16 276 17.7 33.8 0.00 0.00 0.00 37 1011.6
20260503201950 16 279 19.3 33.8 0.00 0.00 0.00 36 1011.7
20260503201850 16 282 19.3 33.8 0.00 0.00 0.00 36 1011.7
20260503201745 16 257 17.7 32.2 0.00 0.00 0.00 36 1011.8
20260503201644 16 257 16.1 32.2 0.00 0.00 0.00 36 1011.7
20260503201538 16 288 16.1 32.2 0.00 0.00 0.00 36 1011.6
20260503201438 16 269 14.5 32.2 0.00 0.00 0.00 36 1011.8
20260503201332 16 306 14.5 30.6 0.00 0.00 0.00 37 1011.7
20260503201232 16 193 14.5 30.6 0.00 0.00 0.00 36 1011.7
20260503201127 16 261 14.5 29.0 0.00 0.00 0.00 37 1011.7
20260503201026 16 245 14.5 30.6 0.00 0.00 0.00 37 1011.6
20260503200943 16 324 14.5 30.6 0.00 0.00 0.00 36 1011.7
20260503200936 16 324 14.5 30.6 0.00 0.00 0.00 38 1011.6
20260503200714 16 304 16.1 30.6 0.00 0.00 0.00 37 1011.7
20260503200614 16 293 14.5 30.6 0.00 0.00 0.00 37 1011.8
20260503200509 16 266 14.5 30.6 0.00 0.00 0.00 37 1011.8
20260503200408 16 273 14.5 30.6 0.00 0.00 0.00 36 1011.7
20260503200303 16 311 14.5 30.6 0.00 0.00 0.00 36 1011.8
20260503200202 16 298 14.5 30.6 0.00 0.00 0.00 39 1011.7
20260503200056 16 280 14.5 30.6 0.00 0.00 0.00 36 1011.9
20260503200015 16 309 16.1 30.6 0.00 0.00 0.00 35 1011.8
20260503200008 16 291 14.5 30.6 0.00 0.00 0.00 36 1011.9
20260503195952 16 285 14.5 30.6 0.00 0.00 0.00 36 1011.8
20260503195833 16 277 12.9 30.6 0.00 0.00 0.00 36 1011.8
20260503195719 16 294 16.1 30.6 0.00 0.00 0.00 34 1011.8
20260503195709 16 290 12.9 30.6 0.00 0.00 0.00 36 1011.8
20260503195338 16 244 14.5 30.6 0.00 0.00 0.00 35 1011.8
20260503195255 16 244 12.9 37.0 0.00 0.00 0.00 38 1011.8
20260503195247 16 255 14.5 30.6 0.00 0.00 0.00 36 1011.8
20260503195026 16 287 12.9 37.0 0.00 0.00 0.00 35 1011.8
20260503194926 16 176 12.9 37.0 0.00 0.00 0.00 34 1011.9
20260503194820 16 240 12.9 37.0 0.00 0.00 0.00 35 1012.0
20260503194720 16 248 12.9 37.0 0.00 0.00 0.00 35 1011.9
20260503194615 16 249 12.9 37.0 0.00 0.00 0.00 37 1011.9
20260503194514 16 294 12.9 37.0 0.00 0.00 0.00 41 1012.0
20260503194450 16 257 14.5 37.0 0.00 0.00 0.00 37 1012.0
20260503194444 16 244 14.5 37.0 0.00 0.00 0.00 40 1012.0
20260503194434 16 273 12.9 37.0 0.00 0.00 0.00 37 1011.9
20260503194102 16 271 16.1 37.0 0.00 0.00 0.00 38 1011.9
20260503194018 16 233 17.7 37.0 0.00 0.00 0.00 39 1011.9
20260503194011 16 275 17.7 37.0 0.00 0.00 0.00 37 1011.9
20260503193750 15 273 17.7 37.0 0.00 0.00 0.00 35 1012.0
20260503193650 16 217 19.3 37.0 0.00 0.00 0.00 35 1012.0
20260503193544 16 259 19.3 37.0 0.00 0.00 0.00 35 1012.1
20260503193444 16 230 17.7 37.0 0.00 0.00 0.00 41 1012.1
20260503193339 16 242 17.7 37.0 0.00 0.00 0.00 41 1012.1
20260503193238 15 298 16.1 37.0 0.00 0.00 0.00 37 1012.0
20260503193132 15 279 14.5 32.2 0.00 0.00 0.00 36 1011.9
20260503193050 16 227 16.1 32.2 0.00 0.00 0.00 34 1012.0
20260503193043 16 238 16.1 32.2 0.00 0.00 0.00 36 1012.1
20260503192826 16 243 16.1 32.2 0.00 0.00 0.00 36 1012.0
20260503192720 16 244 14.5 32.2 0.00 0.00 0.00 37 1012.0
20260503192621 16 257 16.1 32.2 0.00 0.00 0.00 37 1012.1
20260503192541 16 279 16.1 32.2 0.00 0.00 0.00 40 1012.2
20260503192536 16 319 16.1 32.2 0.00 0.00 0.00 37 1012.2
20260503192529 16 315 16.1 32.2 0.00 0.00 0.00 41 1012.1
20260503192514 16 309 16.1 32.2 0.00 0.00 0.00 38 1012.0
20260503192239 16 277 17.7 32.2 0.00 0.00 0.00 38 1012.1
20260503192119 16 276 17.7 32.2 0.00 0.00 0.00 40 1012.3
20260503191856 15 242 16.1 32.2 0.00 0.00 0.00 40 1012.2
20260503191813 15 270 17.7 32.2 0.00 0.00 0.00 36 1012.2
20260503191806 15 306 16.1 32.2 0.00 0.00 0.00 38 1012.2
20260503191550 15 281 16.1 32.2 0.00 0.00 0.00 37 1012.2
20260503191444 15 261 16.1 29.0 0.00 0.00 0.00 39 1012.3
20260503191344 15 320 16.1 29.0 0.00 0.00 0.00 37 1012.3
20260503191317 15 279 16.1 29.0 0.00 0.00 0.00 36 1012.2
20260503191311 15 331 16.1 29.0 0.00 0.00 0.00 36 1012.3
20260503191303 15 333 16.1 29.0 0.00 0.00 0.00 37 1012.2